Time,TemperatureF,DewpointF,PressureIn,WindDirection,WindDirectionDegrees,WindSpeedMPH,WindSpeedGustMPH,Humidity,HourlyPrecipIn,Conditions,Clouds,dailyrainin,SoftwareType,DateUTC
2013-11-08 00:01:00,36.5,32.7,29.91,West,281,0.0,0.0,86,0.01,,,0.06,meteobridge,2013-11-08 05:01:00,
2013-11-08 00:02:00,36.5,32.7,29.91,West,281,0.0,0.0,86,0.01,,,0.06,meteobridge,2013-11-08 05:02:00,
2013-11-08 00:03:00,36.3,32.5,29.91,West,281,0.0,0.0,86,0.01,,,0.06,meteobridge,2013-11-08 05:03:00,
2013-11-08 00:04:00,36.3,32.5,29.91,West,281,0.0,0.0,86,0.01,,,0.06,meteobridge,2013-11-08 05:04:00,
2013-11-08 00:09:00,36.1,32.7,29.91,West,281,0.9,0.9,87,0.00,,,0.06,meteobridge,2013-11-08 05:09:00,
2013-11-08 00:15:00,36.0,32.7,29.91,West,260,0.0,0.9,88,0.00,,,0.06,meteobridge,2013-11-08 05:15:00,
2013-11-08 00:19:00,35.8,32.5,29.91,West,260,0.0,0.9,88,0.00,,,0.06,meteobridge,2013-11-08 05:19:00,
2013-11-08 00:24:00,35.4,32.2,29.91,West,260,0.9,0.9,88,0.00,,,0.06,meteobridge,2013-11-08 05:24:00,
2013-11-08 00:30:00,35.2,32.0,29.91,West,260,0.9,0.9,88,0.00,,,0.06,meteobridge,2013-11-08 05:30:00,
2013-11-08 00:36:00,35.1,32.2,29.91,West,260,0.0,0.0,89,0.00,,,0.06,meteobridge,2013-11-08 05:36:00,
2013-11-08 00:41:00,34.9,32.0,29.91,SSW,198,0.9,2.0,89,0.01,,,0.07,meteobridge,2013-11-08 05:41:00,
2013-11-08 00:47:00,34.5,31.8,29.91,SSW,212,0.0,0.0,90,0.01,,,0.07,meteobridge,2013-11-08 05:47:00,
2013-11-08 00:52:00,34.3,31.6,29.91,WSW,244,0.0,0.9,90,0.01,,,0.07,meteobridge,2013-11-08 05:52:00,
2013-11-08 00:57:00,34.2,31.5,29.91,WSW,244,0.0,0.0,90,0.01,,,0.07,meteobridge,2013-11-08 05:57:00,
2013-11-08 01:03:00,34.0,31.6,29.91,WSW,244,0.9,2.0,91,0.01,,,0.07,meteobridge,2013-11-08 06:03:00,
2013-11-08 01:08:00,34.0,31.6,29.92,WSW,244,0.9,2.0,91,0.01,,,0.07,meteobridge,2013-11-08 06:08:00,
2013-11-08 01:14:00,33.6,31.3,29.92,WSW,244,0.9,0.9,91,0.01,,,0.07,meteobridge,2013-11-08 06:14:00,
2013-11-08 01:19:00,33.6,31.3,29.91,WSW,244,0.9,2.0,91,0.01,,,0.07,meteobridge,2013-11-08 06:19:00,
2013-11-08 01:24:00,33.4,31.1,29.92,WSW,244,0.9,2.0,91,0.01,,,0.07,meteobridge,2013-11-08 06:24:00,
2013-11-08 01:29:00,33.4,31.1,29.91,WNW,282,2.0,4.0,91,0.01,,,0.07,meteobridge,2013-11-08 06:29:00,
2013-11-08 01:35:00,33.4,31.1,29.91,West,273,0.0,2.0,91,0.01,,,0.07,meteobridge,2013-11-08 06:35:00,
2013-11-08 01:40:00,33.4,31.1,29.91,West,275,0.0,0.9,91,0.00,,,0.07,meteobridge,2013-11-08 06:40:00,
2013-11-08 01:45:00,33.4,31.1,29.91,West,274,0.9,0.9,91,0.00,,,0.07,meteobridge,2013-11-08 06:45:00,
2013-11-08 01:50:00,33.4,31.1,29.92,West,266,2.0,2.9,91,0.00,,,0.07,meteobridge,2013-11-08 06:50:00,
2013-11-08 01:55:00,33.4,31.1,29.92,WSW,248,0.9,2.9,91,0.00,,,0.07,meteobridge,2013-11-08 06:55:00,
2013-11-08 02:01:00,33.4,31.1,29.92,SW,229,2.0,2.0,91,0.00,,,0.07,meteobridge,2013-11-08 07:01:00,
2013-11-08 02:06:00,33.4,31.1,29.93,WSW,257,2.0,2.9,91,0.00,,,0.07,meteobridge,2013-11-08 07:06:00,
2013-11-08 02:11:00,33.6,30.9,29.93,WSW,240,2.0,2.0,90,0.00,,,0.07,meteobridge,2013-11-08 07:11:00,
2013-11-08 02:17:00,33.6,30.9,29.93,SW,233,0.9,2.0,90,0.00,,,0.07,meteobridge,2013-11-08 07:17:00,
2013-11-08 02:22:00,33.6,30.9,29.93,WSW,241,0.9,2.0,90,0.00,,,0.07,meteobridge,2013-11-08 07:22:00,
2013-11-08 02:27:00,33.4,30.7,29.93,WSW,246,2.0,2.0,90,0.00,,,0.07,meteobridge,2013-11-08 07:27:00,
2013-11-08 02:32:00,33.4,30.7,29.93,West,266,0.9,2.9,90,0.00,,,0.07,meteobridge,2013-11-08 07:32:00,
2013-11-08 02:37:00,33.3,30.6,29.93,WNW,296,2.0,4.0,90,0.00,,,0.07,meteobridge,2013-11-08 07:37:00,
2013-11-08 02:43:00,33.4,30.6,29.93,West,261,2.0,4.0,89,0.00,,,0.07,meteobridge,2013-11-08 07:43:00,
2013-11-08 02:48:00,33.6,30.7,29.93,WNW,301,2.9,4.0,89,0.00,,,0.07,meteobridge,2013-11-08 07:48:00,
2013-11-08 02:53:00,34.0,30.7,29.93,West,276,2.0,2.9,88,0.00,,,0.07,meteobridge,2013-11-08 07:53:00,
2013-11-08 02:58:00,34.3,30.9,29.93,West,265,2.0,2.9,87,0.00,,,0.07,meteobridge,2013-11-08 07:58:00,
2013-11-08 03:03:00,34.3,30.9,29.93,WSW,249,2.0,4.0,87,0.00,,,0.07,meteobridge,2013-11-08 08:03:00,
2013-11-08 03:09:00,34.5,31.1,29.93,WSW,240,2.0,2.9,87,0.00,,,0.07,meteobridge,2013-11-08 08:09:00,
2013-11-08 03:14:00,34.7,31.3,29.93,WSW,252,2.0,2.9,87,0.00,,,0.07,meteobridge,2013-11-08 08:14:00,
2013-11-08 03:20:00,34.9,31.1,29.93,WSW,248,2.0,2.0,86,0.00,,,0.07,meteobridge,2013-11-08 08:20:00,
2013-11-08 03:25:00,34.9,31.5,29.93,SW,223,0.9,2.9,87,0.00,,,0.07,meteobridge,2013-11-08 08:25:00,
2013-11-08 03:31:00,35.1,31.6,29.93,WSW,248,2.9,4.9,87,0.00,,,0.07,meteobridge,2013-11-08 08:31:00,
2013-11-08 03:36:00,35.2,31.5,29.93,WSW,249,2.0,2.9,86,0.00,,,0.07,meteobridge,2013-11-08 08:36:00,
2013-11-08 03:41:00,35.2,31.5,29.93,WSW,247,2.0,2.9,86,0.01,,,0.08,meteobridge,2013-11-08 08:41:00,
2013-11-08 03:46:00,35.4,31.3,29.93,West,259,4.0,4.0,85,0.01,,,0.08,meteobridge,2013-11-08 08:46:00,
2013-11-08 03:51:00,35.8,31.5,29.93,WSW,244,2.9,4.0,84,0.01,,,0.08,meteobridge,2013-11-08 08:51:00,
2013-11-08 03:57:00,36.0,31.6,29.93,WSW,245,2.0,6.0,84,0.01,,,0.08,meteobridge,2013-11-08 08:57:00,
2013-11-08 04:02:00,36.1,31.5,29.93,WSW,238,2.0,6.0,83,0.01,,,0.08,meteobridge,2013-11-08 09:02:00,
2013-11-08 04:07:00,36.3,31.6,29.93,WNW,285,2.0,6.0,83,0.01,,,0.08,meteobridge,2013-11-08 09:07:00,
2013-11-08 04:13:00,36.3,31.6,29.93,WSW,254,2.0,4.9,83,0.01,,,0.08,meteobridge,2013-11-08 09:13:00,
2013-11-08 04:18:00,36.5,31.5,29.94,WSW,252,2.9,4.9,82,0.01,,,0.08,meteobridge,2013-11-08 09:18:00,
2013-11-08 04:23:00,36.5,31.8,29.94,West,276,2.0,4.0,83,0.01,,,0.08,meteobridge,2013-11-08 09:23:00,
2013-11-08 04:29:00,36.7,32.0,29.94,West,261,0.9,4.9,83,0.01,,,0.08,meteobridge,2013-11-08 09:29:00,
2013-11-08 04:34:00,36.7,31.6,29.95,WSW,248,2.0,2.0,82,0.01,,,0.08,meteobridge,2013-11-08 09:34:00,
2013-11-08 04:39:00,36.7,32.0,29.95,WSW,249,0.9,4.0,83,0.00,,,0.08,meteobridge,2013-11-08 09:39:00,
2013-11-08 04:44:00,36.7,32.0,29.95,WSW,239,2.9,4.0,83,0.00,,,0.08,meteobridge,2013-11-08 09:44:00,
2013-11-08 04:49:00,36.7,32.0,29.95,West,266,2.0,4.0,83,0.00,,,0.08,meteobridge,2013-11-08 09:49:00,
2013-11-08 04:55:00,36.7,32.0,29.95,WSW,250,4.0,4.0,83,0.00,,,0.08,meteobridge,2013-11-08 09:55:00,
2013-11-08 05:00:00,36.7,32.0,29.95,WSW,242,2.0,4.9,83,0.00,,,0.08,meteobridge,2013-11-08 10:00:00,
2013-11-08 05:05:00,36.7,32.4,29.96,WSW,257,0.9,4.0,84,0.00,,,0.08,meteobridge,2013-11-08 10:05:00,
2013-11-08 05:10:00,36.9,32.2,29.96,West,279,0.9,4.0,83,0.00,,,0.08,meteobridge,2013-11-08 10:10:00,
2013-11-08 05:16:00,36.9,32.2,29.96,SW,236,2.0,4.9,83,0.00,,,0.08,meteobridge,2013-11-08 10:16:00,
2013-11-08 05:21:00,37.0,32.4,29.96,WSW,250,2.9,6.9,83,0.00,,,0.08,meteobridge,2013-11-08 10:21:00,
2013-11-08 05:26:00,37.0,32.0,29.96,WNW,289,0.9,8.9,82,0.00,,,0.08,meteobridge,2013-11-08 10:26:00,
2013-11-08 05:32:00,37.2,32.2,29.96,West,263,2.0,4.9,82,0.00,,,0.08,meteobridge,2013-11-08 10:32:00,
2013-11-08 05:37:00,37.2,32.2,29.96,West,260,2.0,4.0,82,0.00,,,0.08,meteobridge,2013-11-08 10:37:00,
2013-11-08 05:43:00,37.4,32.4,29.96,WNW,288,0.9,8.9,82,0.00,,,0.08,meteobridge,2013-11-08 10:43:00,
2013-11-08 05:48:00,37.6,32.4,29.96,WSW,245,2.9,4.0,81,0.00,,,0.08,meteobridge,2013-11-08 10:48:00,
2013-11-08 05:53:00,37.8,32.5,29.96,WNW,294,6.0,10.1,81,0.00,,,0.08,meteobridge,2013-11-08 10:53:00,
2013-11-08 05:58:00,37.9,32.9,29.96,WNW,283,2.0,2.9,82,0.00,,,0.08,meteobridge,2013-11-08 10:58:00,
2013-11-08 06:04:00,37.9,32.7,29.96,NW,305,2.0,4.9,81,0.00,,,0.08,meteobridge,2013-11-08 11:04:00,
2013-11-08 06:09:00,37.9,32.4,29.96,NW,306,2.0,6.0,80,0.00,,,0.08,meteobridge,2013-11-08 11:09:00,
2013-11-08 06:14:00,37.9,32.4,29.96,SW,236,2.0,4.0,80,0.00,,,0.08,meteobridge,2013-11-08 11:14:00,
2013-11-08 06:19:00,37.9,32.4,29.96,West,267,2.9,4.9,80,0.00,,,0.08,meteobridge,2013-11-08 11:19:00,
2013-11-08 06:25:00,37.9,32.0,29.97,West,261,2.9,4.0,79,0.01,,,0.09,meteobridge,2013-11-08 11:25:00,
2013-11-08 06:30:00,38.1,32.2,29.97,West,279,2.0,4.0,79,0.01,,,0.09,meteobridge,2013-11-08 11:30:00,
2013-11-08 06:35:00,38.1,32.2,29.97,WSW,246,2.0,4.0,79,0.01,,,0.09,meteobridge,2013-11-08 11:35:00,
2013-11-08 06:41:00,38.1,32.5,29.98,West,259,2.0,4.9,80,0.01,,,0.09,meteobridge,2013-11-08 11:41:00,
2013-11-08 06:46:00,37.9,32.4,29.98,SW,235,2.0,4.9,80,0.01,,,0.09,meteobridge,2013-11-08 11:46:00,
2013-11-08 06:52:00,37.9,32.4,29.98,SW,231,2.0,6.0,80,0.01,,,0.09,meteobridge,2013-11-08 11:52:00,
2013-11-08 06:57:00,37.9,32.4,29.98,WSW,250,2.0,4.9,80,0.01,,,0.09,meteobridge,2013-11-08 11:57:00,
2013-11-08 07:02:00,37.9,32.4,29.99,WSW,244,2.0,4.9,80,0.01,,,0.09,meteobridge,2013-11-08 12:02:00,
2013-11-08 07:08:00,37.8,32.5,29.99,WSW,240,2.0,4.0,81,0.01,,,0.09,meteobridge,2013-11-08 12:08:00,
2013-11-08 07:13:00,37.8,32.2,29.99,SW,233,0.9,6.0,80,0.01,,,0.09,meteobridge,2013-11-08 12:13:00,
2013-11-08 07:19:00,37.8,32.2,29.99,WNW,297,2.9,6.9,80,0.01,,,0.09,meteobridge,2013-11-08 12:19:00,
2013-11-08 07:24:00,37.8,32.2,29.99,WSW,257,0.0,2.9,80,0.00,,,0.09,meteobridge,2013-11-08 12:24:00,
2013-11-08 07:29:00,37.9,32.4,29.99,West,269,2.0,2.9,80,0.00,,,0.09,meteobridge,2013-11-08 12:29:00,
2013-11-08 07:35:00,38.1,32.2,29.99,WNW,284,6.0,6.9,79,0.00,,,0.09,meteobridge,2013-11-08 12:35:00,
2013-11-08 07:40:00,38.3,32.0,30.00,North,5,0.9,2.9,78,0.00,,,0.09,meteobridge,2013-11-08 12:40:00,
2013-11-08 07:46:00,38.5,32.5,30.00,SW,233,2.0,2.9,79,0.00,,,0.09,meteobridge,2013-11-08 12:46:00,
2013-11-08 07:51:00,38.5,32.5,30.00,WNW,295,0.9,6.0,79,0.00,,,0.09,meteobridge,2013-11-08 12:51:00,
2013-11-08 07:56:00,38.5,31.8,30.00,WSW,253,4.0,4.0,77,0.00,,,0.09,meteobridge,2013-11-08 12:56:00,
2013-11-08 08:01:00,38.7,32.4,30.01,SW,230,0.9,4.0,78,0.00,,,0.09,meteobridge,2013-11-08 13:01:00,
2013-11-08 08:07:00,38.5,32.2,30.01,West,275,0.0,2.9,78,0.00,,,0.09,meteobridge,2013-11-08 13:07:00,
2013-11-08 08:12:00,38.7,32.0,30.01,WSW,248,2.0,4.9,77,0.00,,,0.09,meteobridge,2013-11-08 13:12:00,
2013-11-08 08:18:00,38.8,31.6,30.01,WSW,239,2.0,4.9,75,0.00,,,0.09,meteobridge,2013-11-08 13:18:00,
2013-11-08 08:23:00,39.2,32.4,30.01,SW,228,4.9,6.0,76,0.00,,,0.09,meteobridge,2013-11-08 13:23:00,
2013-11-08 08:28:00,39.4,32.5,30.01,WSW,250,4.9,6.9,76,0.00,,,0.09,meteobridge,2013-11-08 13:28:00,
2013-11-08 08:34:00,39.7,31.8,30.01,WNW,284,8.1,8.1,73,0.00,,,0.09,meteobridge,2013-11-08 13:34:00,
2013-11-08 08:39:00,40.3,32.0,30.01,West,269,4.9,13.0,72,0.00,,,0.09,meteobridge,2013-11-08 13:39:00,
2013-11-08 08:44:00,40.5,31.8,30.01,WSW,248,4.9,12.1,71,0.00,,,0.09,meteobridge,2013-11-08 13:44:00,
2013-11-08 08:49:00,40.6,30.9,30.01,NNW,336,2.9,8.9,68,0.00,,,0.09,meteobridge,2013-11-08 13:49:00,
2013-11-08 08:55:00,40.8,31.5,30.01,WNW,294,2.9,6.9,69,0.00,,,0.09,meteobridge,2013-11-08 13:55:00,
2013-11-08 09:00:00,40.8,30.7,30.01,NW,322,2.9,6.9,67,0.00,,,0.09,meteobridge,2013-11-08 14:00:00,
2013-11-08 09:06:00,41.2,30.7,30.01,WSW,257,10.1,10.1,66,0.00,,,0.09,meteobridge,2013-11-08 14:06:00,
2013-11-08 09:11:00,41.2,31.1,30.01,NW,319,4.9,10.1,67,0.00,,,0.09,meteobridge,2013-11-08 14:11:00,
2013-11-08 09:16:00,41.4,31.3,30.01,WSW,242,4.9,8.1,67,0.00,,,0.09,meteobridge,2013-11-08 14:16:00,
2013-11-08 09:21:00,41.4,30.6,30.01,NW,306,2.9,12.1,65,0.00,,,0.09,meteobridge,2013-11-08 14:21:00,
2013-11-08 09:27:00,41.4,30.0,30.01,WSW,254,6.0,6.0,64,0.00,,,0.09,meteobridge,2013-11-08 14:27:00,
2013-11-08 09:32:00,41.4,30.6,30.01,WNW,302,2.0,6.9,65,0.00,,,0.09,meteobridge,2013-11-08 14:32:00,
2013-11-08 09:38:00,41.5,30.2,30.01,WNW,291,4.9,8.1,64,0.00,,,0.09,meteobridge,2013-11-08 14:38:00,
2013-11-08 09:43:00,41.7,30.4,30.01,West,262,8.9,15.0,64,0.00,,,0.09,meteobridge,2013-11-08 14:43:00,
2013-11-08 09:48:00,41.9,30.2,30.01,West,271,4.0,6.9,63,0.00,,,0.09,meteobridge,2013-11-08 14:48:00,
2013-11-08 09:54:00,42.1,29.7,30.01,WNW,291,2.0,12.1,61,0.00,,,0.09,meteobridge,2013-11-08 14:54:00,
2013-11-08 09:59:00,42.3,29.8,30.01,West,281,0.9,6.0,61,0.00,,,0.09,meteobridge,2013-11-08 14:59:00,
2013-11-08 10:04:00,42.6,29.7,30.01,NW,325,4.0,8.1,60,0.00,,,0.09,meteobridge,2013-11-08 15:04:00,
2013-11-08 10:10:00,42.6,30.2,30.01,NW,310,2.9,11.0,61,0.00,,,0.09,meteobridge,2013-11-08 15:10:00,
2013-11-08 10:15:00,42.6,30.2,30.01,West,277,4.9,10.1,61,0.00,,,0.09,meteobridge,2013-11-08 15:15:00,
2013-11-08 10:20:00,43.0,30.4,30.01,NNW,342,8.1,8.9,61,0.00,,,0.09,meteobridge,2013-11-08 15:20:00,
2013-11-08 10:25:00,43.0,29.7,30.01,WSW,251,6.0,8.1,59,0.00,,,0.09,meteobridge,2013-11-08 15:25:00,
2013-11-08 10:31:00,43.0,29.7,30.01,NW,315,6.0,6.9,59,0.01,,,0.10,meteobridge,2013-11-08 15:31:00,
2013-11-08 10:36:00,43.0,30.0,30.01,NNW,327,0.9,8.9,60,0.01,,,0.10,meteobridge,2013-11-08 15:36:00,
2013-11-08 10:41:00,43.2,30.6,30.01,NW,315,0.9,4.0,61,0.01,,,0.10,meteobridge,2013-11-08 15:41:00,
2013-11-08 10:47:00,43.5,30.2,30.00,North,5,2.9,8.1,59,0.01,,,0.10,meteobridge,2013-11-08 15:47:00,
2013-11-08 10:52:00,43.9,30.6,30.00,WNW,288,2.9,4.0,59,0.01,,,0.10,meteobridge,2013-11-08 15:52:00,
2013-11-08 10:58:00,44.2,30.4,30.00,WNW,300,8.1,11.0,58,0.01,,,0.10,meteobridge,2013-11-08 15:58:00,
2013-11-08 11:03:00,44.2,30.0,30.00,NNW,329,4.0,10.1,57,0.01,,,0.10,meteobridge,2013-11-08 16:03:00,
2013-11-08 11:08:00,44.4,29.7,30.01,NW,312,4.0,6.9,56,0.01,,,0.10,meteobridge,2013-11-08 16:08:00,
2013-11-08 11:14:00,44.4,29.3,30.00,NNW,347,4.0,6.0,55,0.01,,,0.10,meteobridge,2013-11-08 16:14:00,
2013-11-08 11:19:00,44.6,29.8,30.00,WNW,299,2.9,8.1,56,0.01,,,0.10,meteobridge,2013-11-08 16:19:00,
2013-11-08 11:24:00,45.0,29.8,30.00,NW,321,4.0,13.0,55,0.01,,,0.10,meteobridge,2013-11-08 16:24:00,
2013-11-08 11:30:00,45.1,29.5,30.00,West,261,8.1,16.1,54,0.00,,,0.10,meteobridge,2013-11-08 16:30:00,
2013-11-08 11:35:00,45.3,30.0,30.00,West,277,8.1,15.0,55,0.00,,,0.10,meteobridge,2013-11-08 16:35:00,
2013-11-08 11:40:00,45.7,30.0,29.99,NNW,333,4.9,14.1,54,0.00,,,0.10,meteobridge,2013-11-08 16:40:00,
2013-11-08 11:46:00,45.7,30.0,29.99,West,262,6.0,11.0,54,0.00,,,0.10,meteobridge,2013-11-08 16:46:00,
2013-11-08 11:51:00,45.9,30.2,29.99,SW,223,0.9,13.0,54,0.00,,,0.10,meteobridge,2013-11-08 16:51:00,
2013-11-08 11:56:00,46.0,29.5,29.99,WNW,296,2.9,8.1,52,0.00,,,0.10,meteobridge,2013-11-08 16:56:00,
2013-11-08 12:02:00,45.9,28.8,29.99,NW,315,4.0,15.0,51,0.00,,,0.10,meteobridge,2013-11-08 17:02:00,
2013-11-08 12:07:00,45.5,28.4,29.99,NW,317,6.0,10.1,51,0.00,,,0.10,meteobridge,2013-11-08 17:07:00,
2013-11-08 12:12:00,46.0,27.9,29.99,NW,324,8.9,10.1,49,0.00,,,0.10,meteobridge,2013-11-08 17:12:00,
2013-11-08 12:18:00,46.0,27.9,29.99,NW,320,4.9,14.1,49,0.00,,,0.10,meteobridge,2013-11-08 17:18:00,
2013-11-08 12:23:00,46.2,29.1,29.99,WNW,286,11.0,15.0,51,0.00,,,0.10,meteobridge,2013-11-08 17:23:00,
2013-11-08 12:28:00,46.6,28.9,29.99,NNW,336,6.9,6.9,50,0.00,,,0.10,meteobridge,2013-11-08 17:28:00,
2013-11-08 12:33:00,46.6,27.9,29.99,West,268,6.0,8.1,48,0.00,,,0.10,meteobridge,2013-11-08 17:33:00,
2013-11-08 12:39:00,46.2,27.7,29.99,WNW,292,8.9,8.9,48,0.00,,,0.10,meteobridge,2013-11-08 17:39:00,
2013-11-08 12:44:00,45.9,27.9,29.99,NNW,344,6.9,8.9,49,0.00,,,0.10,meteobridge,2013-11-08 17:44:00,
2013-11-08 12:49:00,45.1,27.7,29.99,NNW,329,4.9,8.9,50,0.00,,,0.10,meteobridge,2013-11-08 17:49:00,
2013-11-08 12:55:00,45.3,30.0,29.99,NNW,332,4.9,4.9,55,0.00,,,0.10,meteobridge,2013-11-08 17:55:00,
2013-11-08 13:00:00,45.3,27.9,30.00,NW,305,2.9,8.1,50,0.00,,,0.10,meteobridge,2013-11-08 18:00:00,
2013-11-08 13:05:00,45.1,27.7,30.00,NNW,329,2.9,8.1,50,0.00,,,0.10,meteobridge,2013-11-08 18:05:00,
2013-11-08 13:11:00,45.3,29.1,30.00,WSW,244,2.9,8.1,53,0.00,,,0.10,meteobridge,2013-11-08 18:11:00,
2013-11-08 13:16:00,45.3,28.2,30.00,NW,305,4.0,6.9,51,0.00,,,0.10,meteobridge,2013-11-08 18:16:00,
2013-11-08 13:21:00,45.1,28.0,30.00,NW,312,0.9,13.0,51,0.00,,,0.10,meteobridge,2013-11-08 18:21:00,
2013-11-08 13:27:00,45.1,27.7,30.01,NNW,330,4.0,10.1,50,0.00,,,0.10,meteobridge,2013-11-08 18:27:00,
2013-11-08 13:32:00,45.1,27.7,30.01,West,278,0.9,10.1,50,0.00,,,0.10,meteobridge,2013-11-08 18:32:00,
2013-11-08 13:37:00,45.3,27.9,30.01,NW,306,2.0,8.9,50,0.00,,,0.10,meteobridge,2013-11-08 18:37:00,
2013-11-08 13:43:00,45.3,27.9,30.01,NW,310,4.0,10.1,50,0.00,,,0.10,meteobridge,2013-11-08 18:43:00,
2013-11-08 13:48:00,45.0,27.5,30.01,NW,309,11.0,16.1,50,0.00,,,0.10,meteobridge,2013-11-08 18:48:00,
2013-11-08 13:53:00,44.8,27.3,30.01,WNW,299,4.0,11.0,50,0.00,,,0.10,meteobridge,2013-11-08 18:53:00,
2013-11-08 13:59:00,45.0,27.9,30.01,NW,325,4.0,10.1,51,0.00,,,0.10,meteobridge,2013-11-08 18:59:00,
2013-11-08 14:04:00,45.0,27.5,30.01,NNW,329,4.9,19.9,50,0.00,,,0.10,meteobridge,2013-11-08 19:04:00,
2013-11-08 14:09:00,45.0,27.9,30.02,NNW,327,2.0,12.1,51,0.00,,,0.10,meteobridge,2013-11-08 19:09:00,
2013-11-08 14:14:00,45.0,27.5,30.02,NW,314,4.0,10.1,50,0.00,,,0.10,meteobridge,2013-11-08 19:14:00,
2013-11-08 14:20:00,45.0,27.9,30.01,NNW,328,6.0,8.9,51,0.00,,,0.10,meteobridge,2013-11-08 19:20:00,
2013-11-08 14:25:00,45.0,27.9,30.02,WNW,291,4.9,6.9,51,0.00,,,0.10,meteobridge,2013-11-08 19:25:00,
2013-11-08 14:31:00,44.8,28.2,30.02,NW,305,2.9,6.9,52,0.00,,,0.10,meteobridge,2013-11-08 19:31:00,
2013-11-08 14:36:00,44.8,28.8,30.03,West,268,4.0,6.0,53,0.00,,,0.10,meteobridge,2013-11-08 19:36:00,
2013-11-08 14:41:00,44.6,28.0,30.03,NW,323,2.9,6.9,52,0.00,,,0.10,meteobridge,2013-11-08 19:41:00,
2013-11-08 14:46:00,44.4,27.9,30.03,WNW,298,4.0,4.0,52,0.00,,,0.10,meteobridge,2013-11-08 19:46:00,
2013-11-08 14:51:00,44.4,27.9,30.03,NW,325,4.0,8.1,52,0.00,,,0.10,meteobridge,2013-11-08 19:51:00,
2013-11-08 14:57:00,44.4,28.4,30.03,North,355,2.0,4.9,53,0.00,,,0.10,meteobridge,2013-11-08 19:57:00,
2013-11-08 15:02:00,44.2,29.1,30.03,NNE,18,0.9,8.9,55,0.00,,,0.10,meteobridge,2013-11-08 20:02:00,
2013-11-08 15:08:00,44.1,29.8,30.03,NNW,337,2.0,2.9,57,0.00,,,0.10,meteobridge,2013-11-08 20:08:00,
2013-11-08 15:13:00,44.1,29.8,30.04,NW,320,2.0,4.9,57,0.00,,,0.10,meteobridge,2013-11-08 20:13:00,
2013-11-08 15:18:00,44.1,29.8,30.04,North,5,4.0,8.9,57,0.00,,,0.10,meteobridge,2013-11-08 20:18:00,
2013-11-08 15:24:00,43.9,30.6,30.05,North,355,2.0,10.1,59,0.00,,,0.10,meteobridge,2013-11-08 20:24:00,
2013-11-08 15:29:00,43.7,31.1,30.06,North,355,0.0,11.0,61,0.00,,,0.10,meteobridge,2013-11-08 20:29:00,
2013-11-08 15:34:00,43.3,31.3,30.06,NW,315,2.9,6.9,62,0.00,,,0.10,meteobridge,2013-11-08 20:34:00,
2013-11-08 15:40:00,43.2,30.6,30.06,NNE,26,4.9,6.0,61,0.00,,,0.10,meteobridge,2013-11-08 20:40:00,
2013-11-08 15:45:00,43.0,30.4,30.06,NNE,26,0.9,6.9,61,0.00,,,0.10,meteobridge,2013-11-08 20:45:00,
2013-11-08 15:51:00,43.0,30.4,30.06,NW,309,4.0,8.1,61,0.00,,,0.10,meteobridge,2013-11-08 20:51:00,
2013-11-08 15:56:00,42.8,30.7,30.07,NNW,333,2.0,4.9,62,0.00,,,0.10,meteobridge,2013-11-08 20:56:00,
2013-11-08 16:02:00,42.8,30.7,30.07,NNW,327,2.0,4.0,62,0.00,,,0.10,meteobridge,2013-11-08 21:02:00,
2013-11-08 16:07:00,42.8,31.1,30.07,NNE,19,6.9,8.1,63,0.00,,,0.10,meteobridge,2013-11-08 21:07:00,
2013-11-08 16:12:00,42.3,31.3,30.07,NNW,329,4.9,6.9,65,0.00,,,0.10,meteobridge,2013-11-08 21:12:00,
2013-11-08 16:18:00,41.4,31.3,30.08,NW,325,4.0,8.9,67,0.00,,,0.10,meteobridge,2013-11-08 21:18:00,
2013-11-08 16:23:00,40.8,31.5,30.07,NW,325,2.0,4.9,69,0.00,,,0.10,meteobridge,2013-11-08 21:23:00,
2013-11-08 16:28:00,40.6,31.3,30.07,North,0,2.9,4.9,69,0.00,,,0.10,meteobridge,2013-11-08 21:28:00,
2013-11-08 16:33:00,40.5,31.1,30.07,NW,318,2.9,8.1,69,0.00,,,0.10,meteobridge,2013-11-08 21:33:00,
2013-11-08 16:38:00,40.5,31.1,30.08,West,265,6.9,6.9,69,0.00,,,0.10,meteobridge,2013-11-08 21:38:00,
2013-11-08 16:44:00,40.5,31.1,30.08,WNW,284,0.9,6.0,69,0.00,,,0.10,meteobridge,2013-11-08 21:44:00,
2013-11-08 16:49:00,40.5,30.7,30.08,NW,310,2.0,6.0,68,0.00,,,0.10,meteobridge,2013-11-08 21:49:00,
2013-11-08 16:54:00,40.5,30.4,30.08,NNW,337,4.0,4.0,67,0.00,,,0.10,meteobridge,2013-11-08 21:54:00,
2013-11-08 17:00:00,40.6,29.5,30.08,WNW,300,2.9,8.1,64,0.00,,,0.10,meteobridge,2013-11-08 22:00:00,
2013-11-08 17:05:00,40.6,29.5,30.09,WNW,291,6.9,6.9,64,0.00,,,0.10,meteobridge,2013-11-08 22:05:00,
2013-11-08 17:10:00,40.8,28.4,30.08,WSW,252,4.0,13.0,61,0.00,,,0.10,meteobridge,2013-11-08 22:10:00,
2013-11-08 17:16:00,41.0,28.6,30.09,NNW,346,4.0,6.9,61,0.00,,,0.10,meteobridge,2013-11-08 22:16:00,
2013-11-08 17:21:00,41.0,28.6,30.09,NW,307,2.0,15.0,61,0.00,,,0.10,meteobridge,2013-11-08 22:21:00,
2013-11-08 17:26:00,41.2,27.9,30.09,WNW,300,2.0,6.9,59,0.00,,,0.10,meteobridge,2013-11-08 22:26:00,
2013-11-08 17:32:00,41.2,27.9,30.10,NNW,333,12.1,12.1,59,0.01,,,0.11,meteobridge,2013-11-08 22:32:00,
2013-11-08 17:37:00,41.2,27.9,30.11,WNW,290,17.0,17.0,59,0.01,,,0.11,meteobridge,2013-11-08 22:37:00,
2013-11-08 17:42:00,41.2,27.9,30.11,West,271,8.9,8.9,59,0.01,,,0.11,meteobridge,2013-11-08 22:42:00,
2013-11-08 17:48:00,41.2,27.9,30.11,NW,321,2.9,8.1,59,0.01,,,0.11,meteobridge,2013-11-08 22:48:00,
2013-11-08 17:53:00,40.8,27.7,30.11,WNW,292,2.9,6.0,59,0.01,,,0.11,meteobridge,2013-11-08 22:53:00,
2013-11-08 17:58:00,40.6,27.9,30.11,NW,309,2.0,8.1,60,0.01,,,0.11,meteobridge,2013-11-08 22:58:00,
2013-11-08 18:03:00,40.5,28.0,30.11,WNW,297,2.0,2.9,61,0.01,,,0.11,meteobridge,2013-11-08 23:03:00,
2013-11-08 18:09:00,40.5,28.0,30.12,WSW,257,2.0,8.1,61,0.01,,,0.11,meteobridge,2013-11-08 23:09:00,
2013-11-08 18:14:00,40.3,27.5,30.12,SE,128,0.0,4.0,60,0.01,,,0.11,meteobridge,2013-11-08 23:14:00,
2013-11-08 18:19:00,40.1,27.3,30.12,NNW,333,2.9,6.9,60,0.01,,,0.11,meteobridge,2013-11-08 23:19:00,
2013-11-08 18:25:00,39.9,27.5,30.13,NNE,27,0.9,4.0,61,0.01,,,0.11,meteobridge,2013-11-08 23:25:00,
2013-11-08 18:30:00,39.7,27.0,30.13,North,11,4.9,6.0,60,0.00,,,0.11,meteobridge,2013-11-08 23:30:00,
2013-11-08 18:36:00,39.7,27.0,30.13,NW,312,0.0,2.9,60,0.00,,,0.11,meteobridge,2013-11-08 23:36:00,
2013-11-08 18:41:00,39.7,27.3,30.13,West,273,0.9,2.9,61,0.00,,,0.11,meteobridge,2013-11-08 23:41:00,
2013-11-08 18:47:00,39.6,26.8,30.13,North,355,2.0,4.0,60,0.00,,,0.11,meteobridge,2013-11-08 23:47:00,
2013-11-08 18:52:00,39.6,26.8,30.13,NW,320,2.0,4.9,60,0.00,,,0.11,meteobridge,2013-11-08 23:52:00,
2013-11-08 18:57:00,39.6,26.8,30.13,WNW,293,4.9,8.9,60,0.00,,,0.11,meteobridge,2013-11-08 23:57:00,
2013-11-08 19:03:00,39.6,26.8,30.14,NNW,342,2.0,2.9,60,0.00,,,0.00,meteobridge,2013-11-09 00:03:00,
2013-11-08 19:08:00,39.6,27.1,30.14,NNW,333,0.0,2.9,61,0.00,,,0.00,meteobridge,2013-11-09 00:08:00,
2013-11-08 19:13:00,39.4,27.1,30.14,WNW,301,4.0,4.9,61,0.00,,,0.00,meteobridge,2013-11-09 00:13:00,
2013-11-08 19:18:00,39.4,27.1,30.14,WNW,289,0.9,6.9,61,0.00,,,0.00,meteobridge,2013-11-09 00:18:00,
2013-11-08 19:24:00,39.4,27.5,30.14,NW,304,2.0,6.0,62,0.00,,,0.00,meteobridge,2013-11-09 00:24:00,
2013-11-08 19:29:00,39.6,26.8,30.14,WNW,298,2.9,4.0,60,0.00,,,0.00,meteobridge,2013-11-09 00:29:00,
2013-11-08 19:35:00,39.6,27.1,30.14,NNW,332,4.0,6.9,61,0.00,,,0.00,meteobridge,2013-11-09 00:35:00,
2013-11-08 19:40:00,39.6,26.8,30.14,WNW,297,2.9,6.0,60,0.00,,,0.00,meteobridge,2013-11-09 00:40:00,
2013-11-08 19:45:00,39.6,27.1,30.14,WNW,300,2.9,4.9,61,0.00,,,0.00,meteobridge,2013-11-09 00:45:00,
2013-11-08 19:50:00,39.6,27.1,30.14,NW,309,0.9,4.0,61,0.00,,,0.00,meteobridge,2013-11-09 00:50:00,
2013-11-08 19:55:00,39.4,27.1,30.14,WNW,297,0.9,4.0,61,0.00,,,0.00,meteobridge,2013-11-09 00:55:00,
2013-11-08 20:01:00,39.4,27.1,30.14,WSW,246,2.9,2.9,61,0.00,,,0.00,meteobridge,2013-11-09 01:01:00,
2013-11-08 20:06:00,39.2,27.0,30.14,NNW,336,0.9,4.0,61,0.00,,,0.00,meteobridge,2013-11-09 01:06:00,
2013-11-08 20:12:00,39.2,27.3,30.14,WNW,302,2.0,4.0,62,0.00,,,0.00,meteobridge,2013-11-09 01:12:00,
2013-11-08 20:17:00,39.0,27.1,30.14,NW,305,2.0,2.0,62,0.00,,,0.00,meteobridge,2013-11-09 01:17:00,
2013-11-08 20:23:00,39.0,27.1,30.15,WNW,292,4.0,4.9,62,0.00,,,0.00,meteobridge,2013-11-09 01:23:00,
2013-11-08 20:28:00,39.0,27.1,30.15,WNW,290,4.9,6.0,62,0.00,,,0.00,meteobridge,2013-11-09 01:28:00,
2013-11-08 20:33:00,39.0,27.1,30.15,NW,313,2.0,4.9,62,0.00,,,0.00,meteobridge,2013-11-09 01:33:00,
2013-11-08 20:39:00,39.0,27.1,30.15,NW,306,4.0,6.0,62,0.00,,,0.00,meteobridge,2013-11-09 01:39:00,
2013-11-08 20:44:00,39.2,27.7,30.15,WSW,254,6.0,8.9,63,0.00,,,0.00,meteobridge,2013-11-09 01:44:00,
2013-11-08 20:49:00,39.4,27.1,30.15,West,264,2.0,4.9,61,0.00,,,0.00,meteobridge,2013-11-09 01:49:00,
2013-11-08 20:54:00,39.2,27.0,30.16,WSW,240,6.0,6.0,61,0.00,,,0.00,meteobridge,2013-11-09 01:54:00,
2013-11-08 20:59:00,39.0,26.8,30.15,NW,313,2.9,4.9,61,0.00,,,0.00,meteobridge,2013-11-09 01:59:00,
2013-11-08 21:05:00,39.0,27.1,30.15,WNW,289,2.9,6.9,62,0.00,,,0.00,meteobridge,2013-11-09 02:05:00,
2013-11-08 21:10:00,39.0,27.1,30.16,WNW,298,2.0,4.9,62,0.00,,,0.00,meteobridge,2013-11-09 02:10:00,
2013-11-08 21:15:00,38.8,27.0,30.16,NNW,328,0.9,4.0,62,0.00,,,0.00,meteobridge,2013-11-09 02:15:00,
2013-11-08 21:21:00,38.8,27.0,30.16,NW,306,2.0,4.0,62,0.00,,,0.00,meteobridge,2013-11-09 02:21:00,
2013-11-08 21:26:00,38.8,27.3,30.16,NW,310,4.0,4.0,63,0.00,,,0.00,meteobridge,2013-11-09 02:26:00,
2013-11-08 21:31:00,38.8,27.0,30.16,NNW,331,2.0,4.0,62,0.00,,,0.00,meteobridge,2013-11-09 02:31:00,
2013-11-08 21:36:00,38.7,26.8,30.16,NW,313,0.9,4.0,62,0.00,,,0.00,meteobridge,2013-11-09 02:36:00,
2013-11-08 21:42:00,38.7,26.8,30.16,NNW,333,2.0,4.0,62,0.00,,,0.00,meteobridge,2013-11-09 02:42:00,
2013-11-08 21:47:00,38.7,27.1,30.17,NW,325,2.0,2.9,63,0.00,,,0.00,meteobridge,2013-11-09 02:47:00,
2013-11-08 21:53:00,38.7,27.1,30.16,WNW,302,0.0,2.9,63,0.00,,,0.00,meteobridge,2013-11-09 02:53:00,
2013-11-08 21:58:00,38.5,27.0,30.16,NW,311,2.9,2.9,63,0.00,,,0.00,meteobridge,2013-11-09 02:58:00,
2013-11-08 22:03:00,38.5,27.0,30.16,WNW,297,0.9,2.9,63,0.00,,,0.00,meteobridge,2013-11-09 03:03:00,
2013-11-08 22:09:00,38.5,27.0,30.16,NW,313,2.9,2.9,63,0.00,,,0.00,meteobridge,2013-11-09 03:09:00,
2013-11-08 22:14:00,38.3,27.1,30.17,WNW,292,2.0,2.9,64,0.00,,,0.00,meteobridge,2013-11-09 03:14:00,
2013-11-08 22:19:00,38.3,27.1,30.17,WNW,299,2.0,4.9,64,0.00,,,0.00,meteobridge,2013-11-09 03:19:00,
2013-11-08 22:24:00,38.3,26.8,30.17,NW,314,2.0,2.9,63,0.00,,,0.00,meteobridge,2013-11-09 03:24:00,
2013-11-08 22:29:00,38.5,27.0,30.17,NW,315,2.0,4.9,63,0.00,,,0.00,meteobridge,2013-11-09 03:29:00,
2013-11-08 22:35:00,38.7,27.1,30.17,NW,310,0.0,4.0,63,0.00,,,0.00,meteobridge,2013-11-09 03:35:00,
2013-11-08 22:40:00,38.7,27.5,30.17,WNW,283,0.0,2.0,64,0.00,,,0.00,meteobridge,2013-11-09 03:40:00,
2013-11-08 22:45:00,38.5,27.0,30.17,WSW,242,2.9,2.9,63,0.00,,,0.00,meteobridge,2013-11-09 03:45:00,
2013-11-08 22:51:00,38.3,27.5,30.17,West,279,0.0,2.0,65,0.00,,,0.00,meteobridge,2013-11-09 03:51:00,
2013-11-08 22:56:00,38.1,27.3,30.17,West,279,0.0,0.0,65,0.00,,,0.00,meteobridge,2013-11-09 03:56:00,
2013-11-08 23:01:00,37.8,27.9,30.17,WSW,245,0.0,0.0,67,0.00,,,0.00,meteobridge,2013-11-09 04:01:00,
2013-11-08 23:06:00,37.2,27.7,30.17,South,175,2.0,2.0,68,0.00,,,0.00,meteobridge,2013-11-09 04:06:00,
2013-11-08 23:11:00,37.0,27.9,30.17,South,169,0.0,0.9,69,0.00,,,0.00,meteobridge,2013-11-09 04:11:00,
2013-11-08 23:17:00,36.9,28.0,30.18,South,169,0.0,0.0,70,0.00,,,0.00,meteobridge,2013-11-09 04:17:00,
2013-11-08 23:22:00,36.7,28.2,30.18,South,169,0.0,0.0,71,0.00,,,0.00,meteobridge,2013-11-09 04:22:00,
2013-11-08 23:27:00,36.3,28.2,30.18,South,169,0.0,0.0,72,0.00,,,0.00,meteobridge,2013-11-09 04:27:00,
2013-11-08 23:32:00,36.0,28.4,30.18,South,169,0.0,0.0,74,0.00,,,0.00,meteobridge,2013-11-09 04:32:00,
2013-11-08 23:38:00,35.8,28.6,30.18,South,169,0.0,0.0,75,0.00,,,0.00,meteobridge,2013-11-09 04:38:00,
2013-11-08 23:43:00,35.6,28.4,30.18,South,169,0.0,0.0,75,0.00,,,0.00,meteobridge,2013-11-09 04:43:00,
2013-11-08 23:48:00,35.2,28.4,30.18,South,169,0.0,0.0,76,0.00,,,0.00,meteobridge,2013-11-09 04:48:00,
2013-11-08 23:53:00,35.1,28.6,30.18,South,189,0.9,2.0,77,0.00,,,0.00,meteobridge,2013-11-09 04:53:00,
2013-11-08 23:59:00,35.1,28.2,30.18,WSW,241,2.0,2.9,76,0.00,,,0.00,meteobridge,2013-11-09 04:59:00,